Hourly Data Report for October 02, 2020

SHEARWATER RCS
NOVA SCOTIA
Current Station Operator: ECCC - MSC

44°37'47.000" N
63°30'48.000" W
24.00 m
8205092
71264
AAW

Download Data

Hourly Data (October 2020)
Hourly Data Report for October 2, 2020
TIME Temp Definition
°C
Dew Point Definition
°C
Rel Hum Definition
%
Wind Dir Definition
10's deg

Wind Spd Definition
km/h
Visibility Definition
km
Stn Press Definition
kPa
Hmdx Definition


Wind Chill Definition


Weather Definition


00:00 12.7 12.1 97   0   101.40     LegendNANA
01:00 14.5 14.2 98 22 3   101.43     LegendNANA
02:00 14.7 14.1 96 28 2   101.40     LegendNANA
03:00 14.7 14.0 95 0 1   101.40     LegendNANA
04:00 14.0 13.5 96 12 3   101.39     LegendNANA
05:00 14.7 14.1 96 17 2   101.40     LegendNANA
06:00 14.2 13.7 97 11 4   101.40     LegendNANA
07:00 14.8 14.2 96 10 6   101.42     LegendNANA
08:00 15.4 14.6 95 12 9   101.43     LegendNANA
09:00 16.6 14.5 87 11 10   101.45     LegendNANA
10:00 16.8 14.6 87 10 9   101.44     LegendNANA
11:00 16.7 14.1 85 10 13   101.40     LegendNANA
12:00 16.5 13.6 83 10 12   101.35     LegendNANA
13:00 15.9 13.8 87 16 15   101.30     LegendNANA
14:00 15.3 12.9 86 11 7   101.19     LegendNANA
15:00 15.2 12.8 86 11 6   101.16     LegendNANA
16:00 14.5 12.6 88 11 9   101.11     LegendNANA
17:00 14.3 12.8 91 10 5   101.07     LegendNANA
18:00 14.5 13.0 91 11 4   101.01     LegendNANA
19:00 13.7 12.9 95 8 4   100.93     LegendNANA
20:00 14.5 13.2 92 11 4   100.93     LegendNANA
21:00 15.0 14.0 94 15 7   100.94     LegendNANA
22:00 14.9 14.4 97 23 4   100.91     LegendNANA
23:00 14.7 14.1 96 17 3   100.85     LegendNANA

Notes on Data Quality.

Legend

  • E = Estimated
  • M = Missing
  • NA = Not Available*
  • [empty] = Indicates an unobserved value
Date modified: